Location: Middlebury
(44.0153°N, 73.1678°W)
Time: 10:24:37
(UTC-04:00)

QB50P2 - Pass Details

Date: 23 June 2024
Orbit: 561 x 578 km, 98.0° (Epoch: 18 July)

Event Time Altitude Azimuth Distance (km) Brightness Sun altitude
Rises 04:21:43 0° 3° (N) 2,767 ? -7.6°
Reaches altitude 10° 04:24:01 10° 354° (N) 1,864 ? -7.3°
Maximum altitude 04:27:36 32° 291° (WNW) 989 ? -6.9°
Drops below altitude 10° 04:31:09 10° 228° (SW) 1,850 ? -6.4°
Enters shadow 04:31:36 - 225° (SW) 2,017 ? -6.3°
